Regional Weather Roundup
Issued by NWS Little Rock, AR

Home | Current Version | Previous Version | Text Only | Print | Product List | Glossary Off
Versions: 1 2 3 4 5 6 7 8 9 10 11 12 13 14 15 16 17 18 19 20 21 22 23 24 25 26 27 28 29 30 31 32 33 34 35 36 37 38 39 40 41 42 43 44 45 46 47 48 49 50

000
ASUS44 KLZK 261905
RWRLZK

WEATHER ROUNDUP FOR ARKANSAS
NATIONAL WEATHER SERVICE LITTLE ROCK AR
100 PM CST THU FEB 26 2015

NOTE: "FAIR" INDICATES FEW OR NO CLOUDS BELOW 12,000 FEET WITH NO
SIGNIFICANT WEATHER AND/OR OBSTRUCTIONS TO VISIBILITY.

ARZ001-003-010-029-262000-
NORTHWEST ARKANSAS

CITY           SKY/WX    TMP DP  RH WIND       PRES   REMARKS
FAYETTEVILLE   PTSUNNY   25  12  58 N9        30.30F WCI  15
FORT SMITH     PTSUNNY   32  15  49 N18G25    30.32F WCI  20
HARRISON       PTSUNNY   26  13  57 NW14G21   30.26R WCI  14
BENTONVILLE    PTSUNNY   25   9  50 N10G21    30.31F WCI  15
ROGERS         PTSUNNY   23  11  60 N10G20    30.31S WCI  12
SILOAM SPGS    PTSUNNY   25   7  46 NW13G18   30.34S WCI  13
HIGHFILL       PTSUNNY   25   9  50 N17G23    30.31S WCI  12
SPRINGDALE     PTSUNNY   25  10  54 N14       30.32S WCI  13
$$

ARZ004-005-016-262000-
NORTH CENTRAL ARKANSAS

CITY           SKY/WX    TMP DP  RH WIND       PRES   REMARKS
BATESVILLE     CLOUDY    32  18  55 W13G20    30.24R WCI  22
FLIPPIN        CLOUDY    27  12  54 N10G22    30.27S WCI  17
MTN HOME       PTSUNNY   26  14  60 NW9G17    30.26R WCI  17
$$

ARZ040-041-262000-
WEST CENTRAL ARKANSAS

CITY           SKY/WX    TMP DP  RH WIND       PRES   REMARKS
MENA           MOSUNNY   36  23  60 N14       30.23S
MOUNT IDA      MOSUNNY   38  23  55 N12       30.20S
$$

ARZ009-017-025-026-028-262000-
NORTHEAST ARKANSAS

CITY           SKY/WX    TMP DP  RH WIND       PRES   REMARKS
CORNING          N/A     30  21  69 NW16G22   30.23R WCI  19
JONESBORO      CLOUDY    29  23  78 N13G22    30.21R WCI  19
NEWPORT        CLOUDY    31  22  69 NW15      30.25R WCI  20
WALNUT RIDGE   CLOUDY    30  18  59 NW20G25   30.23R WCI  18
BLYTHEVILLE    CLOUDY    34  28  79 N16       30.18R WCI  24
NW BLYTHEVILLE CLOUDY    34  27  75 N13G22    30.18  WCI  25
$$

ARZ022-023-033-042-044-262000-
CENTRAL ARKANSAS

CITY           SKY/WX    TMP DP  RH WIND       PRES   REMARKS
LITTLE ROCK    PTSUNNY   37  24  59 N16G25    30.23S
N LITTLE ROCK  PTSUNNY   36  27  69 N14G22    30.23S
JACKSONVILLE   CLOUDY    36  23  59 NW12      30.22S
SEARCY         CLOUDY    36  23  59 N15G24    30.24R
HOT SPRINGS    CLOUDY    37  24  59 NW8       30.23R
RUSSELLVILLE   PTSUNNY   39  20  46 N12G22    30.24S
CLINTON        FAIR      32  18  55 N9G23     30.28S HAZE    WCI  24
$$

ARZ036-262000-
EAST ARKANSAS

CITY           SKY/WX    TMP DP  RH WIND       PRES   REMARKS
WEST MEMPHIS   CLOUDY    34  29  82 NW9G21    30.17R WCI  27
$$

ARZ050-053-066-070-073-262000-
SOUTHWEST ARKANSAS

CITY           SKY/WX    TMP DP  RH WIND       PRES   REMARKS
ARKADELPHIA    CLOUDY    37  28  70 N10       30.24S
CAMDEN         CLOUDY    37  32  81 MISG      30.23S HAZE
TEXARKANA      CLOUDY    36  28  73 N9        30.23F
EL DORADO      CLOUDY    37  32  82 N7        30.22S
DE QUEEN       SUNNY     41  24  51 N8        30.23F
$$

ARZ056-057-069-262000-
SOUTHEAST ARKANSAS

CITY           SKY/WX    TMP DP  RH WIND       PRES   REMARKS
PINE BLUFF     CLOUDY    34  26  72 N16       30.22R WCI  24
STUTTGART      CLOUDY    34  27  75 N16       30.22R WCI  23
MONTICELLO     CLOUDY    36  31  82 N9        30.19R

$$




USA.gov is the U.S. government's official web portal to all federal, state and local government web resources and services.